EW3803 Weather Reports


time (UTC)temp
C
wind
direction
speed
KPH
gust
KPH
rain 1hr
cm
rain 24hr
cm
rain mn
cm
humidity
%
barometer
mb
20260831003029 18 272 16.1 33.8 0.00 0.00 0.00 86 1020.0
20260831001540 18 267 17.7 27.4 0.00 0.00 0.00 85 1020.0
20260831000017 18 296 16.1 27.4 0.00 0.00 0.00 84 1019.8
20260830234537 18 304 17.7 30.6 0.00 0.00 0.00 83 1019.9
20260830233029 18 255 19.3 29.0 0.00 0.00 0.00 83 1019.9
20260830231506 19 280 16.1 25.7 0.00 0.00 0.00 83 1020.0
20260830230028 19 276 14.5 25.7 0.00 0.00 0.00 83 1020.0
20260830224526 19 272 20.9 29.0 0.00 0.00 0.00 85 1019.9
20260830223024 19 247 17.7 22.5 0.00 0.00 0.00 88 1019.9
20260830221527 19 250 11.3 19.3 0.00 0.00 0.00 89 1019.7
20260830220023 19 245 14.5 20.9 0.00 0.00 0.00 90 1019.8
20260830214512 19 246 14.5 22.5 0.00 0.00 0.00 89 1019.6
20260830213018 20 247 14.5 22.5 0.00 0.00 0.00 89 1019.5
20260830211527 20 245 12.9 24.1 0.00 0.00 0.00 89 1019.3
20260830210030 20 260 14.5 20.9 0.00 0.00 0.00 88 1019.3
20260830204512 20 237 14.5 20.9 0.00 0.00 0.00 88 1019.2
20260830203014 20 258 12.9 19.3 0.00 0.00 0.00 88 1019.0
20260830201559 20 236 12.9 22.5 0.00 0.00 0.00 87 1018.8
20260830200030 20 254 16.1 22.5 0.00 0.00 0.00 87 1018.7
20260830194534 20 242 11.3 24.1 0.00 0.00 0.00 87 1018.5
20260830193015 20 265 11.3 17.7 0.00 0.00 0.00 86 1018.5
20260830191521 20 238 9.7 19.3 0.00 0.00 0.00 86 1018.5
20260830190032 20 241 12.9 19.3 0.00 0.00 0.00 84 1018.4
20260830184533 21 237 9.7 19.3 0.00 0.00 0.00 84 1018.4
20260830183012 21 226 9.7 22.5 0.00 0.00 0.00 83 1018.6
20260830181514 21 245 11.3 24.1 0.00 0.00 0.00 83 1018.6
20260830180024 21 248 11.3 25.7 0.00 0.00 0.00 83 1018.6
20260830174530 21 233 11.3 30.6 0.00 0.00 0.00 83 1018.7
20260830173033 21 198 12.9 27.4 0.00 0.00 0.00 82 1018.6
20260830171513 21 227 20.9 29.0 0.00 0.00 0.00 82 1018.6
20260830170019 22 233 20.9 30.6 0.00 0.00 0.00 83 1018.6
20260830164529 22 196 16.1 29.0 0.00 0.00 0.00 82 1018.6
20260830163034 22 219 19.3 35.4 0.00 0.00 0.00 82 1018.6
20260830161531 22 200 20.9 33.8 0.00 0.00 0.00 81 1018.7
20260830160017 22 205 17.7 30.6 0.00 0.00 0.00 80 1018.7
20260830154524 22 215 16.1 35.4 0.00 0.00 0.00 79 1018.6
20260830153037 22 216 20.9 35.4 0.00 0.00 0.00 77 1018.6
20260830151532 22 227 16.1 30.6 0.00 0.00 0.00 78 1018.8
20260830150016 23 231 20.9 33.8 0.00 0.00 0.00 77 1018.8
20260830144534 23 237 17.7 29.0 0.00 0.00 0.00 1019.0
20260830143028 22 185 17.7 32.2 0.00 0.00 0.00 1019.2
20260830141508 22 233 22.5 32.2 0.00 0.00 0.00 80 1019.3
20260830140014 22 173 19.3 32.2 0.00 0.00 0.00 80 1019.4
20260830134519 22 178 22.5 35.4 0.00 0.00 0.00 82 1019.4
20260830133037 22 221 20.9 32.2 0.00 0.00 0.00 82 1019.6
20260830131531 22 212 16.1 27.4 0.00 0.00 0.00 82 1019.6
20260830130009 22 232 19.3 32.2 0.00 0.00 0.00 84 1019.7
20260830124516 22 213 20.9 33.8 0.00 0.00 0.00 85 1019.5
20260830123034 22 194 20.9 33.8 0.00 0.00 0.00 82 1019.9
20260830121529 22 228 20.9 33.8 0.00 0.00 0.00 80 1020.0
20260830120009 23 227 16.1 32.2 0.00 0.00 0.00 79 1020.0
20260830114519 23 213 17.7 29.0 0.00 0.00 0.00 81 1019.9
20260830113029 22 230 11.3 24.1 0.00 0.00 0.00 82 1020.1
20260830111529 23 264 14.5 29.0 0.00 0.00 0.00 82 1020.2
20260830110030 22 225 19.3 27.4 0.00 0.00 0.00 81 1020.2
20260830104514 22 252 16.1 25.7 0.00 0.00 0.00 81 1020.2
20260830103020 23 207 12.9 24.1 0.00 0.00 0.00 79 1020.1
20260830101524 22 245 16.1 20.9 0.00 0.00 0.00 79 1020.1
20260830100035 22 251 11.3 22.5 0.00 0.00 0.00 80 1020.1
20260830094559 22 200 11.3 22.5 0.00 0.00 0.00 81 1020.0
20260830093024 22 241 11.3 20.9 0.00 0.00 0.00 82 1020.0
20260830091526 21 254 11.3 16.1 0.00 0.00 0.00 85 1020.0
20260830090041 21 277 8.0 14.5 0.00 0.00 0.00 86 1020.0
20260830084530 20 275 9.7 14.5 0.00 0.00 0.00 89 1019.9
20260830083034 20 244 8.0 12.9 0.00 0.00 0.00 91 1019.8
20260830081519 20 241 4.8 8.0 0.00 0.00 0.00 93 1019.9
20260830080040 19 291 0.0 3.2 0.00 0.00 0.00 93 1019.8
20260830074532 19 291 0.0 3.2 0.00 0.00 0.00 93 1019.7
20260830073031 18 291 0.0 3.2 0.00 0.00 0.00 93 1019.6
20260830071519 18 291 1.6 3.2 0.00 0.00 0.00 94 1019.4
20260830070034 18 292 0.0 0.0 0.00 0.00 0.00 94 1019.2
20260830064539 18 292 0.0 3.2 0.00 0.00 0.00 94 1019.1
20260830063030 18 292 0.0 3.2 0.00 0.00 0.00 93 1018.9
20260830061534 18 292 3.2 6.4 0.00 0.00 0.00 93 1018.6
20260830060021 18 294 4.8 8.0 0.00 0.00 0.00 93 1018.7
20260830054521 17 309 4.8 6.4 0.00 0.00 0.00 93 1018.7
20260830053007 17 299 3.2 6.4 0.00 0.00 0.00 93 1018.7
20260830051514 17 304 1.6 4.8 0.00 0.00 0.00 93 1018.8
20260830050020 17 304 3.2 6.4 0.00 0.00 0.00 93 1018.8
20260830044529 17 304 4.8 8.0 0.00 0.00 0.00 93 1018.7
20260830043006 17 311 3.2 3.2 0.00 0.00 0.00 92 1018.8
20260830041519 17 311 1.6 3.2 0.00 0.00 0.00 92 1018.8
20260830040021 17 311 3.2 6.4 0.00 0.00 0.00 92 1018.7
20260830034525 17 311 4.8 8.0 0.00 0.00 0.00 92 1018.8
20260830033004 17 285 4.8 6.4 0.00 0.00 0.00 92 1018.9
20260830031511 17 295 3.2 4.8 0.00 0.00 0.00 92 1018.9
20260830030025 17 302 4.8 6.4 0.00 0.00 0.00 91 1019.0
20260830024531 17 277 3.2 6.4 0.00 0.00 0.00 91 1019.1
20260830023031 17 277 4.8 6.4 0.00 0.00 0.00 91 1019.1
20260830021518 18 291 6.4 11.3 0.00 0.00 0.00 90 1018.9
20260830020014 18 294 8.0 12.9 0.00 0.00 0.00 90 1018.9
20260830014519 18 269 9.7 17.7 0.00 0.00 0.00 90 1018.9
20260830013022 18 296 9.7 14.5 0.00 0.00 0.00 89 1019.0
20260830011532 18 286 8.0 16.1 0.00 0.00 0.00 88 1019.0
20260830010010 18 273 11.3 16.1 0.00 0.00 0.00 88 1019.1
20260830004515 18 274 14.5 19.3 0.00 0.00 0.00 87 1019.1